Погода в Нагаоке

Япония     35°02′38″N   138°56′40″E
темп.,
°C
ветер,
м/с
пор.,
м/с
влажн.,
%
обл.,
%
осадки,
мм/ч
давл.,
гПа
погр.,
м
14 апреля, ср
ср1400:00+13юз1298100 2.8 101285
03:00+14зюз2298100 4.3 100992
06:00+15зюз2299100 4.9 100769
09:00+15зюз2399100 9.3 1006140
12:00+17зюз239898 0.7 1003272
15:00+20з156919 0.8 1002924
18:00+13всв5895100 0.1 1005541
21:00+11в81292100 0.5 1010867
15 апреля, чт
чт1500:00+9в689299 0.6 1013854
03:00+7всв797782 0.6 1016818
06:00+7всв5774100 0.0 1019787
09:00+8в556498 0.0 1022864
12:00+10в445116 0.0 1022960
15:00+11в32485 0.0 1021891
18:00+9юв356589 0.0 1024345
21:00+8юв2471100 0.0 1027350
16 апреля, пт
пт1600:00+9вюв2268100 0.0 1026218
03:00+8в117264 0.0 1026117
06:00+9всв247482 0.0 1027217
09:00+11в567054 0.1 10261095
12:00+13в456467 0.1 10261238
15:00+12вюв457189 0.4 1025982
18:00+11юв247974 0.2 1025367
21:00+11юв1282100 0.4 1025105
17 апреля, сб
сб1700:00+11юв1188100 0.2 102483
03:00+11юв0191100 0.4 102288
06:00+11вюв1195100 1.3 102088
09:00+12ю0297100 5.1 1019133
12:00+13св1299100 10.1 1016142
15:00+13зсз2499100 31.3 1013233
18:00+13вюв1198100 2.9 101360
21:00+11зюз22969 2.9 101133
18 апреля, вс
вс1800:00+11зюз2498100 0.0 1009152
03:00+12зюз4128921 0.1 1006479
06:00+11зюз413880 0.0 1006546
09:00+14зюз610530 0.0 1006797
12:00+17юз24400 0.0 10061549
15:00+16зюз68440 0.0 10041196
18:00+12зюз916600 0.0 1005583
21:00+10зюз410610 0.0 1008319